Wind_Speed
16 15 15 15 14 13 12 11 11 10 9 9 9 8 8 8 8 7 7 7 7 7 6 6 7 7 6 7 7 7 7 7 7 7 7 7 7 7 7 6 6 6 6
16 15 15 15 15 14 13 12 12 11 11 10 10 10 10 10 9 9 9 9 9 9 8 8 8 8 8 8 8 8 8 8 8 8 9 9 9 8 8 8 8 8 7
17 16 16 16 16 16 15 14 14 13 12 12 12 12 12 12 12 12 11 11 11 11 11 10 10 10 10 10 10 10 10 10 10 10 10 10 10 10 10 10 10 10 9
18 18 17 17 17 17 17 16 16 15 14 14 14 14 14 14 14 14 14 13 13 13 13 13 12 12 12 12 12 12 11 11 12 12 12 12 12 12 12 12 12 11 11
20 19 19 18 18 18 18 18 17 17 17 16 15 15 15 15 15 15 15 15 15 15 15 15 15 15 15 15 14 14 13 13 13 14 13 13 13 13 13 14 13 13 13
22 21 21 20 20 19 19 19 19 19 18 18 17 17 16 16 16 16 16 17 17 17 17 17 17 17 17 17 17 17 16 16 15 15 15 15 15 15 15 15 15 15 15
24 23 23 22 22 22 21 20 20 20 20 20 20 19 19 18 18 18 18 18 18 18 18 18 18 18 18 18 18 18 18 18 18 18 17 17 17 17 17 17 16 16 16
26 25 25 25 24 24 23 22 22 22 22 22 22 22 22 22 21 21 21 21 20 20 20 21 20 20 20 20 19 19 20 20 20 20 20 19 19 19 19 18 18 18 18
29 28 27 27 26 26 26 25 25 25 24 24 24 24 24 24 24 24 24 24 23 23 23 23 23 23 23 22 22 22 22 21 21 22 22 21 21 20 20 20 20 20 20
31 30 30 29 29 29 28 28 28 28 27 27 27 26 26 26 26 27 27 26 26 26 26 26 26 26 26 25 25 24 24 24 24 23 23 23 23 22 22 22 22 22 22
32 32 31 31 31 31 31 31 30 30 30 29 29 29 29 29 28 28 28 28 29 29 29 29 29 29 28 28 28 27 27 27 27 26 25 25 25 25 24 24 24 24 24
33 33 32 32 32 32 32 32 32 32 32 32 32 32 31 31 31 30 30 30 30 30 31 31 31 31 31 31 31 30 30 29 29 28 28 27 27 27 27 27 27 26 26
34 34 33 33 33 33 33 33 34 34 34 34 34 34 34 33 33 33 32 32 32 33 33 33 33 33 33 33 33 33 32 32 31 31 30 29 29 29 29 28 28 28 28
35 35 34 34 34 33 34 34 34 34 35 35 35 35 35 35 35 35 34 34 35 35 35 35 35 35 35 35 35 35 35 35 34 34 33 33 32 32 31 31 31 30 30
35 35 35 35 35 35 35 35 34 34 35 35 36 36 36 37 36 37 37 37 37 37 37 36 37 36 36 37 37 36 36 36 36 36 36 36 36 35 34 34 33 33 32
36 36 36 35 35 35 35 35 35 35 35 36 36 37 37 38 38 38 39 39 39 39 38 38 38 38 37 38 38 38 38 38 38 37 37 37 37 37 36 35 35 35 34
37 37 37 36 36 36 35 35 35 35 35 36 36 37 37 38 38 39 39 40 40 41 41 41 41 41 40 40 40 40 40 40 40 40 39 39 39 38 38 37 37 37 36
38 38 38 38 37 36 36 36 36 37 37 37 38 38 39 39 39 40 40 41 41 42 43 43 43 43 43 43 43 43 43 42 42 43 42 42 42 41 40 40 40 39 39
38 39 39 39 38 38 38 38 39 39 39 40 40 41 41 42 42 42 42 43 43 44 44 45 45 46 46 45 45 45 45 45 45 45 45 44 44 43 43 42 42 41 40
39 39 39 39 40 40 40 40 41 41 42 42 42 43 44 45 45 46 46 46 47 47 47 48 48 49 49 49 49 48 48 47 47 46 47 48 47 46 45 44 44 43 42
40 40 40 41 41 41 41 42 42 42 43 44 45 45 46 47 48 48 48 49 50 49 49 49 50 50 51 51 52 51 51 51 50 48 48 49 49 49 49 48 46 45 45
40 41 41 41 41 42 42 42 43 43 44 45 46 47 47 48 48 48 49 49 48 48 49 49 49 49 50 52 53 54 54 53 52 52 51 51 51 51 51 51 51 51 49
40 40 41 41 41 42 42 42 43 43 44 45 46 47 47 47 47 47 47 47 47 47 48 49 49 50 50 51 53 55 56 56 54 53 53 53 52 52 52 53 53 53 53
38 38 39 40 40 41 42 42 43 44 44 45 46 46 46 47 47 47 48 48 48 48 48 48 49 50 50 51 52 53 55 55 55 54 54 54 54 54 54 54 54 53 54
36 38 38 39 39 40 41 42 43 43 44 45 46 46 46 47 47 46 46 47 47 47 48 48 49 50 50 51 52 52 52 53 54 55 55 55 55 55 54 54 54 53 54
34 35 36 37 37 38 39 40 41 42 43 43 44 44 45 45 46 46 46 46 46 46 46 46 48 49 49 50 51 52 52 52 54 55 56 55 54 54 54 54 55 55 54
Wind_Direction
234 236 239 241 242 244 246 247 247 249 251 254 256 258 259 262 266 271 275 277 278 278 277 276 276 274 274 277 280 281 282 280 280 280 279 279 280 284 290 295 297 301 307
235 237 239 241 242 244 246 248 250 252 254 255 257 260 261 263 265 267 269 272 272 273 275 274 272 272 272 272 274 277 279 279 279 279 280 278 277 279 283 287 289 291 293
237 239 241 243 244 246 248 250 252 255 257 259 260 262 264 265 266 266 267 269 270 271 271 273 273 271 271 270 270 272 275 277 276 277 277 277 276 276 278 281 283 285 286
239 240 243 245 247 248 250 252 254 256 258 261 263 265 266 268 268 269 269 269 269 270 270 271 272 272 271 270 269 269 271 274 274 274 275 275 275 275 274 276 279 282 283
242 243 245 247 249 250 251 253 255 257 259 261 264 266 268 269 269 270 270 270 270 269 269 269 269 270 270 269 268 267 267 269 271 271 272 274 274 274 274 275 277 279 281
245 246 247 249 250 251 253 255 257 259 260 262 263 265 267 269 270 271 271 270 271 271 271 270 270 270 271 271 269 267 266 267 269 270 270 271 272 273 274 274 275 276 278
246 247 248 250 251 252 254 256 258 260 262 264 265 266 267 268 270 270 271 271 271 270 271 272 272 272 271 271 271 269 268 266 266 268 269 270 271 272 272 273 274 275 276
248 249 250 252 253 254 256 257 259 261 263 265 266 267 268 269 270 270 270 271 271 272 272 271 272 272 273 272 271 270 269 268 267 267 268 269 269 269 270 271 272 273 275
249 250 251 252 254 256 258 259 261 263 264 267 268 268 268 268 269 270 270 271 271 272 272 272 271 271 272 271 270 269 269 268 269 268 267 267 268 268 268 269 270 271 273
249 251 252 253 254 256 259 261 263 264 266 267 268 269 269 269 269 270 271 271 271 271 271 271 271 271 271 271 270 268 268 268 269 268 268 267 267 267 267 267 268 270 271
250 251 253 255 256 257 259 261 263 264 266 267 268 269 269 270 270 270 271 271 271 271 270 270 270 270 270 270 269 268 268 268 269 268 268 267 267 267 266 267 267 269 270
250 251 252 254 256 258 259 261 262 264 265 266 267 268 268 269 269 269 270 270 270 270 271 270 270 269 268 268 268 268 268 267 268 268 268 267 267 267 267 268 267 268 269
250 251 252 254 256 258 259 261 262 263 264 265 266 266 267 267 268 268 269 269 269 270 271 271 271 269 268 268 267 267 267 267 267 267 267 267 267 267 267 268 268 268 269
249 251 252 254 256 258 260 261 262 263 264 264 265 265 266 266 267 267 268 268 268 269 269 270 270 270 269 268 268 267 266 266 266 267 266 266 266 266 267 267 267 268 269
250 251 253 254 256 257 259 261 262 263 263 264 265 265 265 266 266 266 267 267 268 268 268 269 269 269 269 268 268 267 266 265 265 267 267 267 266 267 267 267 267 268 268
250 252 254 255 256 258 259 261 262 263 263 264 265 266 266 266 267 267 267 267 268 268 268 269 269 269 268 268 267 267 267 266 265 267 267 267 267 266 266 266 267 268 268
251 253 254 256 257 258 259 260 262 263 264 265 266 266 267 267 267 267 267 267 268 268 268 268 268 268 267 267 267 267 266 266 265 265 266 266 266 266 266 267 267 267 268
252 254 255 257 258 259 259 260 262 263 265 266 267 267 268 268 268 268 269 269 269 269 269 269 268 267 268 267 267 267 267 266 266 265 264 265 265 265 265 266 267 268 268
254 255 257 258 259 259 260 262 263 264 265 266 266 267 268 269 269 269 269 269 269 270 270 269 268 268 267 267 267 268 267 266 265 265 264 264 265 264 265 266 266 267 266
256 257 257 258 260 261 262 263 264 265 266 267 268 269 269 269 270 270 270 270 270 270 270 270 269 269 268 266 266 266 266 266 267 266 265 264 264 263 263 265 266 266 266
258 258 259 260 261 262 263 264 266 267 268 269 269 270 270 270 270 270 271 271 270 270 270 270 270 270 269 267 265 265 265 265 265 266 265 265 264 263 264 265 265 265 265
260 260 260 261 262 263 264 265 266 268 269 270 271 271 272 272 271 271 271 270 270 270 269 269 269 269 268 267 266 265 264 265 265 265 265 264 264 263 263 264 265 264 263
261 262 262 263 263 264 265 266 267 268 269 270 271 272 273 272 272 272 271 270 271 271 270 269 270 270 268 267 267 266 265 264 264 264 265 265 265 264 263 263 264 265 264
263 263 265 266 266 267 267 267 268 269 269 270 271 272 272 273 273 273 272 272 272 272 272 271 271 271 270 269 268 267 266 265 263 262 263 264 265 264 263 263 263 264 263
264 265 266 266 267 267 268 269 270 270 271 271 271 272 272 273 273 273 273 273 272 272 273 272 272 272 272 270 269 267 267 266 265 264 262 262 263 263 264 263 262 262 262
266 266 267 267 268 268 269 270 271 272 273 273 273 273 273 273 273 273 273 273 273 272 273 273 273 273 272 271 270 268 267 265 265 265 263 261 261 262 262 262 262 261 261
Height
5857 5858 5860 5861 5863 5864 5865 5866 5867 5868 5869 5870 5871 5871 5872 5873 5874 5874 5875 5875 5876 5876 5877 5877 5877 5878 5878 5878 5879 5879 5879 5879 5879 5879 5880 5880 5880 5880 5880 5880 5880 5879 5879
5855 5856 5858 5859 5860 5862 5863 5864 5865 5866 5867 5868 5869 5870 5870 5871 5872 5873 5873 5874 5874 5875 5875 5876 5876 5876 5876 5877 5877 5877 5878 5878 5878 5878 5878 5878 5879 5879 5879 5879 5879 5878 5878
5852 5854 5855 5857 5858 5859 5860 5862 5863 5864 5865 5866 5867 5867 5868 5869 5870 5871 5871 5872 5872 5873 5873 5874 5874 5874 5875 5875 5875 5876 5876 5876 5876 5877 5877 5877 5877 5877 5877 5877 5877 5877 5877
5849 5851 5852 5854 5855 5857 5858 5859 5860 5861 5862 5863 5864 5865 5866 5867 5867 5868 5869 5869 5870 5870 5871 5871 5872 5872 5872 5873 5873 5874 5874 5874 5874 5875 5875 5875 5875 5875 5875 5875 5875 5875 5875
5846 5848 5849 5851 5852 5854 5855 5856 5857 5858 5859 5860 5861 5862 5863 5864 5865 5865 5866 5867 5867 5868 5868 5869 5869 5870 5870 5870 5870 5871 5871 5871 5872 5872 5872 5872 5872 5872 5873 5873 5873 5873 5873
5842 5844 5846 5848 5849 5850 5852 5853 5854 5855 5856 5857 5858 5859 5860 5861 5862 5862 5863 5863 5864 5865 5865 5866 5866 5866 5867 5867 5867 5868 5868 5869 5869 5869 5869 5870 5870 5870 5870 5870 5870 5870 5870
5838 5840 5842 5844 5845 5847 5848 5849 5850 5851 5852 5854 5855 5856 5857 5858 5858 5859 5860 5860 5861 5861 5862 5862 5863 5863 5863 5864 5864 5864 5865 5865 5865 5866 5866 5866 5867 5867 5867 5867 5867 5867 5867
5834 5836 5838 5839 5841 5843 5844 5845 5847 5848 5849 5850 5851 5852 5853 5854 5855 5855 5856 5857 5857 5858 5858 5859 5859 5859 5860 5860 5860 5861 5861 5861 5862 5862 5862 5862 5863 5863 5863 5863 5863 5863 5863
5829 5831 5833 5835 5837 5838 5840 5841 5842 5844 5845 5846 5847 5848 5849 5849 5850 5851 5852 5852 5853 5853 5854 5854 5855 5855 5855 5856 5856 5856 5857 5857 5857 5858 5858 5858 5858 5859 5859 5859 5859 5859 5859
5824 5826 5828 5830 5832 5834 5835 5836 5838 5839 5840 5841 5842 5843 5844 5845 5845 5846 5847 5847 5848 5849 5849 5849 5850 5850 5851 5851 5851 5852 5852 5852 5853 5853 5853 5854 5854 5854 5854 5854 5855 5855 5855
5818 5821 5823 5825 5827 5828 5830 5831 5832 5833 5835 5836 5836 5837 5838 5839 5840 5841 5841 5842 5842 5843 5843 5844 5844 5845 5845 5846 5846 5847 5847 5847 5848 5848 5848 5849 5849 5849 5849 5850 5850 5850 5850
5813 5815 5817 5819 5821 5822 5824 5825 5826 5828 5828 5829 5831 5831 5832 5833 5834 5835 5835 5836 5836 5837 5837 5838 5838 5838 5839 5839 5840 5841 5841 5841 5842 5842 5843 5843 5843 5844 5844 5844 5844 5844 5845
5807 5809 5811 5813 5815 5816 5817 5819 5820 5821 5822 5823 5824 5825 5825 5826 5827 5828 5829 5829 5830 5830 5830 5831 5831 5832 5832 5833 5833 5834 5834 5835 5835 5836 5837 5837 5837 5838 5838 5838 5839 5839 5839
5800 5803 5805 5807 5808 5809 5811 5812 5813 5814 5815 5816 5817 5817 5818 5819 5820 5821 5821 5822 5822 5823 5823 5823 5824 5824 5825 5825 5826 5827 5827 5828 5829 5829 5830 5830 5831 5831 5831 5832 5832 5833 5833
5794 5796 5798 5800 5802 5803 5804 5805 5806 5807 5808 5809 5809 5810 5811 5812 5812 5813 5814 5814 5814 5815 5815 5815 5816 5816 5817 5817 5818 5819 5819 5820 5821 5821 5822 5822 5823 5824 5824 5825 5825 5826 5826
5787 5789 5791 5793 5795 5796 5797 5798 5799 5800 5800 5801 5802 5802 5803 5804 5804 5805 5805 5806 5806 5807 5807 5807 5808 5808 5809 5809 5810 5810 5811 5812 5812 5813 5814 5814 5815 5816 5817 5817 5818 5818 5819
5780 5782 5784 5786 5787 5789 5790 5791 5792 5792 5793 5793 5794 5794 5795 5795 5796 5796 5797 5797 5797 5798 5798 5798 5799 5799 5800 5800 5801 5802 5802 5803 5804 5805 5806 5806 5807 5807 5808 5809 5809 5810 5810
5773 5775 5777 5778 5780 5782 5783 5784 5784 5785 5785 5786 5786 5786 5786 5786 5787 5787 5788 5788 5788 5788 5788 5789 5789 5790 5790 5791 5792 5792 5793 5794 5795 5795 5796 5797 5798 5798 5799 5800 5801 5801 5802
5766 5768 5770 5771 5772 5774 5775 5776 5776 5777 5777 5777 5777 5777 5778 5778 5778 5778 5778 5778 5778 5778 5778 5779 5779 5779 5780 5781 5781 5782 5783 5784 5785 5785 5787 5787 5788 5788 5789 5790 5791 5792 5793
5759 5760 5762 5763 5764 5765 5766 5767 5767 5768 5768 5768 5768 5768 5768 5768 5767 5767 5768 5768 5768 5768 5768 5768 5768 5768 5769 5770 5770 5771 5772 5773 5774 5775 5776 5777 5778 5778 5779 5780 5781 5782 5783
5750 5752 5753 5754 5755 5756 5757 5758 5758 5758 5758 5758 5758 5757 5757 5757 5756 5756 5757 5756 5756 5756 5756 5756 5756 5756 5757 5757 5757 5759 5760 5761 5763 5764 5765 5766 5767 5767 5768 5769 5770 5771 5772
5742 5743 5745 5746 5747 5747 5748 5748 5749 5749 5748 5748 5747 5746 5746 5745 5745 5744 5744 5744 5744 5744 5744 5744 5744 5744 5745 5744 5745 5745 5747 5750 5751 5752 5753 5754 5754 5755 5756 5757 5758 5759 5761
5734 5735 5736 5737 5737 5738 5738 5739 5739 5739 5738 5737 5736 5735 5734 5734 5733 5732 5732 5732 5732 5732 5732 5731 5731 5731 5732 5732 5731 5731 5733 5736 5738 5740 5740 5741 5742 5743 5744 5745 5746 5747 5748
5726 5727 5727 5728 5728 5729 5729 5729 5729 5729 5728 5727 5726 5725 5724 5723 5722 5721 5720 5720 5720 5720 5720 5719 5719 5718 5718 5719 5718 5717 5718 5720 5723 5726 5728 5728 5729 5730 5731 5732 5734 5734 5736
5718 5718 5719 5719 5719 5719 5719 5719 5718 5718 5717 5716 5715 5714 5713 5712 5711 5710 5709 5709 5709 5708 5708 5707 5707 5706 5705 5705 5705 5705 5704 5704 5706 5709 5713 5716 5715 5716 5717 5718 5720 5721 5722
5710 5710 5710 5710 5710 5710 5709 5709 5708 5708 5707 5705 5704 5703 5702 5701 5700 5699 5698 5698 5697 5697 5696 5696 5695 5694 5692 5692 5691 5691 5691 5691 5692 5694 5697 5700 5701 5703 5703 5704 5706 5707 5709